Regional Weather Roundup
Issued by NWS

Home | Current Version | Previous Version | Graphics & Text | Print | Product List | Glossary On
Versions: 1 2 3 4 5 6 7 8 9 10 11 12 13 14 15 16 17 18 19 20 21 22 23 24 25 26 27 28 29 30 31 32 33 34 35 36 37 38 39 40 41 42 43 44 45 46 47 48 49 50
824
ASUS44 KMEG 130710
RWRTN
TENNESSEE HOURLY STATE WEATHER ROUNDUP
NATIONAL WEATHER SERVICE MEMPHIS TN
100 AM CST SAT FEB 13 2016

TNZ002-004-019-021-049-052-054-088>092-130800-
WEST TENNESSEE

CITY           SKY/WX    TMP DP  RH WIND       PRES   REMARKS
MEMPHIS INTL   CLEAR     35  21  56 N13G22    30.46R WCI  26
NWS MEMPHIS      N/A     33 N/A N/A MISG        N/A
JACKSON        CLEAR     29  18  63 N14       30.47R WCI  18
DYERSBURG      CLEAR     28  12  50 N16G22    30.51R WCI  17
UNION CITY     CLEAR     21  16  79 N8        30.48R WCI  12
PARIS          CLEAR     21  12  68 N6        30.47R WCI  14
LEXINGTON      CLEAR     27  12  54 N9        30.43R WCI  17
$$

TNZ008-025-027-028-033-062-065-066-130800-
NORTH MIDDLE TENNESSEE

CITY           SKY/WX    TMP DP  RH WIND       PRES   REMARKS
NASHVILLE      PTCLDY    26  12  55 NW10G20   30.42R WCI  16
CLARKSVILLE    CLEAR     23  13  65 N12       30.46R WCI  12
SMYRNA         CLOUDY    26  15  63 N16       30.42R WCI  14
COOKEVILLE     PTCLDY    25  12  58 VRB7      30.32R WCI  17
CROSSVILLE     CLOUDY    25  16  68 N12G23    30.26R WCI  14
$$

TNZ061-075-076-078-094-096-097-130800-
SOUTH MIDDLE TENNESSEE

CITY           SKY/WX    TMP DP  RH WIND       PRES   REMARKS
FAYETTEVILLE   MOCLDY    30  21  69 N12G21    30.34R WCI  21
TULLAHOMA      CLEAR     25  19  80 N13       30.34R WCI  13
WINCHESTER     CLEAR     27  18  69 N8        30.33R WCI  18
MCMINNVILLE    CLEAR     27  16  63 N8        30.34R WCI  18
COLUMBIA       CLEAR     27  19  74 N9        30.38R WCI  17
SHELBYVILLE    CLEAR     28  19  69 N14       30.38R WCI  17
$$

TNZ017-018-042-046-047-130800-
NORTHEAST TENNESSEE

CITY           SKY/WX    TMP DP  RH WIND       PRES   REMARKS
TRI CITIES     MOCLDY    27  15  61 W13       30.18R WCI  16
$$

TNZ012-013-036-069-073-074-130800-
CENTRAL EAST TENNESSEE

CITY           SKY/WX    TMP DP  RH WIND       PRES   REMARKS
KNOXVILLE      CLOUDY    30  18  60 W9        30.27R WCI  22
OAK RIDGE      CLOUDY    31  15  52 VRB5      30.30R WCI  26
GATLINBURG     CLOUDY    28  21  74 NW12      30.26R WCI  18
MORRISTOWN     CLOUDY    28  18  64 NW14      30.23R WCI  17
$$

TNZ083-085-099-130800-
SOUTHEAST TENNESSEE

CITY           SKY/WX    TMP DP  RH WIND       PRES   REMARKS
CHATTANOOGA    PTCLDY    32  17  54 N13       30.31R WCI  22
$$

SKY/WX REPORTED AS FAIR MEANS FEW OR NO CLOUDS BELOW
12 THOUSAND FEET.





USA.gov is the U.S. government's official web portal to all federal, state and local government web resources and services.